owner,sensor,date,latitude,longitude,vertical_datum,sea_water_temperature,qcFlag 
COMPS,ioos:station:USF.COMPS:C10:1,2015-06-01T00:05:00Z,27.1690,-82.9260,-1.0,28.605,2 
COMPS,ioos:station:USF.COMPS:C10:1,2015-06-01T00:35:00Z,27.1690,-82.9260,-1.0,28.531,2 
COMPS,ioos:station:USF.COMPS:C10:1,2015-06-01T01:05:00Z,27.1690,-82.9260,-1.0,28.477,2 
COMPS,ioos:station:USF.COMPS:C10:1,2015-06-01T01:35:00Z,27.1690,-82.9260,-1.0,28.436,2 
COMPS,ioos:station:USF.COMPS:C10:1,2015-06-01T02:05:00Z,27.1690,-82.9260,-1.0,28.424,2 
COMPS,ioos:station:USF.COMPS:C10:1,2015-06-01T02:35:00Z,27.1690,-82.9260,-1.0,28.363,2 
COMPS,ioos:station:USF.COMPS:C10:1,2015-06-01T04:05:00Z,27.1690,-82.9260,-1.0,28.236,2 
COMPS,ioos:station:USF.COMPS:C10:1,2015-06-01T04:35:00Z,27.1690,-82.9260,-1.0,28.242,2 
COMPS,ioos:station:USF.COMPS:C10:1,2015-06-01T05:05:00Z,27.1690,-82.9260,-1.0,28.229,2 
COMPS,ioos:station:USF.COMPS:C10:1,2015-06-01T05:35:00Z,27.1690,-82.9260,-1.0,28.251,2 
COMPS,ioos:station:USF.COMPS:C10:1,2015-06-01T06:05:00Z,27.1690,-82.9260,-1.0,28.279,2 
COMPS,ioos:station:USF.COMPS:C10:1,2015-06-01T06:35:00Z,27.1690,-82.9260,-1.0,28.253,2 
COMPS,ioos:station:USF.COMPS:C10:1,2015-06-01T07:05:00Z,27.1690,-82.9260,-1.0,28.245,2 
COMPS,ioos:station:USF.COMPS:C10:1,2015-06-01T07:35:00Z,27.1690,-82.9260,-1.0,28.246,2 
COMPS,ioos:station:USF.COMPS:C10:1,2015-06-01T08:05:00Z,27.1690,-82.9260,-1.0,28.259,2 
COMPS,ioos:station:USF.COMPS:C10:1,2015-06-01T08:35:00Z,27.1690,-82.9260,-1.0,28.265,2 
COMPS,ioos:station:USF.COMPS:C10:1,2015-06-01T09:05:00Z,27.1690,-82.9260,-1.0,28.255,2 
COMPS,ioos:station:USF.COMPS:C10:1,2015-06-01T09:35:00Z,27.1690,-82.9260,-1.0,28.257,2 
COMPS,ioos:station:USF.COMPS:C10:1,2015-06-01T10:05:00Z,27.1690,-82.9260,-1.0,28.266,2 
COMPS,ioos:station:USF.COMPS:C10:1,2015-06-01T10:35:00Z,27.1690,-82.9260,-1.0,28.262,2 
COMPS,ioos:station:USF.COMPS:C10:1,2015-06-01T11:05:00Z,27.1690,-82.9260,-1.0,28.242,2 
COMPS,ioos:station:USF.COMPS:C10:1,2015-06-01T11:35:00Z,27.1690,-82.9260,-1.0,28.242,2 
COMPS,ioos:station:USF.COMPS:C10:1,2015-06-01T12:05:00Z,27.1690,-82.9260,-1.0,28.249,2 
COMPS,ioos:station:USF.COMPS:C10:1,2015-06-01T12:35:00Z,27.1690,-82.9260,-1.0,28.254,2 
COMPS,ioos:station:USF.COMPS:C10:1,2015-06-01T13:05:00Z,27.1690,-82.9260,-1.0,28.268,2 
COMPS,ioos:station:USF.COMPS:C10:1,2015-06-01T13:35:00Z,27.1690,-82.9260,-1.0,28.291,2 
COMPS,ioos:station:USF.COMPS:C10:1,2015-06-01T14:05:00Z,27.1690,-82.9260,-1.0,28.322,2 
COMPS,ioos:station:USF.COMPS:C10:1,2015-06-01T14:35:00Z,27.1690,-82.9260,-1.0,28.351,2 
COMPS,ioos:station:USF.COMPS:C10:1,2015-06-01T15:05:00Z,27.1690,-82.9260,-1.0,28.432,2 
COMPS,ioos:station:USF.COMPS:C10:1,2015-06-01T15:35:00Z,27.1690,-82.9260,-1.0,28.561,2 
COMPS,ioos:station:USF.COMPS:C10:1,2015-06-01T16:05:00Z,27.1690,-82.9260,-1.0,28.72,2 
COMPS,ioos:station:USF.COMPS:C10:1,2015-06-01T16:35:00Z,27.1690,-82.9260,-1.0,28.813,2 
COMPS,ioos:station:USF.COMPS:C10:1,2015-06-01T17:05:00Z,27.1690,-82.9260,-1.0,28.916,2 
COMPS,ioos:station:USF.COMPS:C10:1,2015-06-01T17:35:00Z,27.1690,-82.9260,-1.0,29.045,2 
COMPS,ioos:station:USF.COMPS:C10:1,2015-06-01T18:05:00Z,27.1690,-82.9260,-1.0,29.132,2 
COMPS,ioos:station:USF.COMPS:C10:1,2015-06-01T18:35:00Z,27.1690,-82.9260,-1.0,29.129,2 
COMPS,ioos:station:USF.COMPS:C10:1,2015-06-01T19:05:00Z,27.1690,-82.9260,-1.0,29.226,2 
COMPS,ioos:station:USF.COMPS:C10:1,2015-06-01T19:35:00Z,27.1690,-82.9260,-1.0,29.303,2 
COMPS,ioos:station:USF.COMPS:C10:1,2015-06-01T20:05:00Z,27.1690,-82.9260,-1.0,29.243,2 
COMPS,ioos:station:USF.COMPS:C10:1,2015-06-01T20:35:00Z,27.1690,-82.9260,-1.0,29.25,2 
COMPS,ioos:station:USF.COMPS:C10:1,2015-06-01T21:05:00Z,27.1690,-82.9260,-1.0,29.264,2 
COMPS,ioos:station:USF.COMPS:C10:1,2015-06-01T21:35:00Z,27.1690,-82.9260,-1.0,29.207,2 
COMPS,ioos:station:USF.COMPS:C10:1,2015-06-01T22:05:00Z,27.1690,-82.9260,-1.0,29.166,2 
COMPS,ioos:station:USF.COMPS:C10:1,2015-06-01T22:35:00Z,27.1690,-82.9260,-1.0,29.141,2 
COMPS,ioos:station:USF.COMPS:C10:1,2015-06-02T00:05:00Z,27.1690,-82.9260,-1.0,29.017,2 
COMPS,ioos:station:USF.COMPS:C10:1,2015-06-02T00:35:00Z,27.1690,-82.9260,-1.0,28.969,2 
COMPS,ioos:station:USF.COMPS:C10:1,2015-06-02T01:05:00Z,27.1690,-82.9260,-1.0,28.915,2 
COMPS,ioos:station:USF.COMPS:C10:1,2015-06-02T01:35:00Z,27.1690,-82.9260,-1.0,28.847,2 
COMPS,ioos:station:USF.COMPS:C10:1,2015-06-02T02:05:00Z,27.1690,-82.9260,-1.0,28.826,2 
COMPS,ioos:station:USF.COMPS:C10:1,2015-06-02T02:35:00Z,27.1690,-82.9260,-1.0,28.819,2 
COMPS,ioos:station:USF.COMPS:C10:1,2015-06-02T03:35:00Z,27.1690,-82.9260,-1.0,28.769,2 
COMPS,ioos:station:USF.COMPS:C10:1,2015-06-02T04:05:00Z,27.1690,-82.9260,-1.0,28.726,2 
COMPS,ioos:station:USF.COMPS:C10:1,2015-06-02T04:35:00Z,27.1690,-82.9260,-1.0,28.709,2 
COMPS,ioos:station:USF.COMPS:C10:1,2015-06-02T05:05:00Z,27.1690,-82.9260,-1.0,28.694,2 
COMPS,ioos:station:USF.COMPS:C10:1,2015-06-02T05:35:00Z,27.1690,-82.9260,-1.0,28.678,2 
COMPS,ioos:station:USF.COMPS:C10:1,2015-06-02T06:05:00Z,27.1690,-82.9260,-1.0,28.674,2 
COMPS,ioos:station:USF.COMPS:C10:1,2015-06-02T06:35:00Z,27.1690,-82.9260,-1.0,28.656,2 
COMPS,ioos:station:USF.COMPS:C10:1,2015-06-02T07:05:00Z,27.1690,-82.9260,-1.0,28.634,2 
COMPS,ioos:station:USF.COMPS:C10:1,2015-06-02T07:35:00Z,27.1690,-82.9260,-1.0,28.623,2 
COMPS,ioos:station:USF.COMPS:C10:1,2015-06-02T08:05:00Z,27.1690,-82.9260,-1.0,28.624,2 
COMPS,ioos:station:USF.COMPS:C10:1,2015-06-02T08:35:00Z,27.1690,-82.9260,-1.0,28.61,2 
COMPS,ioos:station:USF.COMPS:C10:1,2015-06-02T09:35:00Z,27.1690,-82.9260,-1.0,28.598,2 
COMPS,ioos:station:USF.COMPS:C10:1,2015-06-02T10:35:00Z,27.1690,-82.9260,-1.0,28.581,2 
COMPS,ioos:station:USF.COMPS:C10:1,2015-06-02T11:05:00Z,27.1690,-82.9260,-1.0,28.576,2 
COMPS,ioos:station:USF.COMPS:C10:1,2015-06-02T11:35:00Z,27.1690,-82.9260,-1.0,28.566,2 
COMPS,ioos:station:USF.COMPS:C10:1,2015-06-02T12:05:00Z,27.1690,-82.9260,-1.0,28.541,2 
COMPS,ioos:station:USF.COMPS:C10:1,2015-06-02T12:35:00Z,27.1690,-82.9260,-1.0,28.541,2 
COMPS,ioos:station:USF.COMPS:C10:1,2015-06-02T13:05:00Z,27.1690,-82.9260,-1.0,28.519,2 
COMPS,ioos:station:USF.COMPS:C10:1,2015-06-02T14:05:00Z,27.1690,-82.9260,-1.0,28.514,2 
COMPS,ioos:station:USF.COMPS:C10:1,2015-06-02T14:35:00Z,27.1690,-82.9260,-1.0,28.51,2 
COMPS,ioos:station:USF.COMPS:C10:1,2015-06-02T15:05:00Z,27.1690,-82.9260,-1.0,28.484,2 
COMPS,ioos:station:USF.COMPS:C10:1,2015-06-02T15:35:00Z,27.1690,-82.9260,-1.0,28.482,2 
COMPS,ioos:station:USF.COMPS:C10:1,2015-06-02T16:05:00Z,27.1690,-82.9260,-1.0,28.476,2 
COMPS,ioos:station:USF.COMPS:C10:1,2015-06-02T16:35:00Z,27.1690,-82.9260,-1.0,28.452,2 
COMPS,ioos:station:USF.COMPS:C10:1,2015-06-02T17:05:00Z,27.1690,-82.9260,-1.0,28.453,2 
COMPS,ioos:station:USF.COMPS:C10:1,2015-06-02T17:35:00Z,27.1690,-82.9260,-1.0,28.437,2 
COMPS,ioos:station:USF.COMPS:C10:1,2015-06-02T18:35:00Z,27.1690,-82.9260,-1.0,28.339,2 
COMPS,ioos:station:USF.COMPS:C10:1,2015-06-02T19:05:00Z,27.1690,-82.9260,-1.0,28.335,2 
COMPS,ioos:station:USF.COMPS:C10:1,2015-06-02T19:35:00Z,27.1690,-82.9260,-1.0,28.308,2 
COMPS,ioos:station:USF.COMPS:C10:1,2015-06-02T20:05:00Z,27.1690,-82.9260,-1.0,28.327,2 
COMPS,ioos:station:USF.COMPS:C10:1,2015-06-02T20:35:00Z,27.1690,-82.9260,-1.0,28.357,2 
COMPS,ioos:station:USF.COMPS:C10:1,2015-06-02T21:05:00Z,27.1690,-82.9260,-1.0,28.375,2 
COMPS,ioos:station:USF.COMPS:C10:1,2015-06-02T21:35:00Z,27.1690,-82.9260,-1.0,28.388,2 
COMPS,ioos:station:USF.COMPS:C10:1,2015-06-02T22:05:00Z,27.1690,-82.9260,-1.0,28.409,2 
COMPS,ioos:station:USF.COMPS:C10:1,2015-06-02T22:35:00Z,27.1690,-82.9260,-1.0,28.403,2 
COMPS,ioos:station:USF.COMPS:C10:1,2015-06-02T23:05:00Z,27.1690,-82.9260,-1.0,28.415,2 
COMPS,ioos:station:USF.COMPS:C10:1,2015-06-02T23:35:00Z,27.1690,-82.9260,-1.0,28.42,2 
COMPS,ioos:station:USF.COMPS:C10:1,2015-06-03T00:05:00Z,27.1690,-82.9260,-1.0,28.389,2 
COMPS,ioos:station:USF.COMPS:C10:1,2015-06-03T00:35:00Z,27.1690,-82.9260,-1.0,28.403,2 
COMPS,ioos:station:USF.COMPS:C10:1,2015-06-03T01:05:00Z,27.1690,-82.9260,-1.0,28.385,2 
COMPS,ioos:station:USF.COMPS:C10:1,2015-06-03T01:35:00Z,27.1690,-82.9260,-1.0,28.363,2 
COMPS,ioos:station:USF.COMPS:C10:1,2015-06-03T04:05:00Z,27.1690,-82.9260,-1.0,28.315,2 
COMPS,ioos:station:USF.COMPS:C10:1,2015-06-03T04:35:00Z,27.1690,-82.9260,-1.0,28.315,2 
COMPS,ioos:station:USF.COMPS:C10:1,2015-06-03T05:05:00Z,27.1690,-82.9260,-1.0,28.303,2 
COMPS,ioos:station:USF.COMPS:C10:1,2015-06-03T05:35:00Z,27.1690,-82.9260,-1.0,28.315,2 
COMPS,ioos:station:USF.COMPS:C10:1,2015-06-03T06:05:00Z,27.1690,-82.9260,-1.0,28.307,2 
COMPS,ioos:station:USF.COMPS:C10:1,2015-06-03T06:35:00Z,27.1690,-82.9260,-1.0,28.284,2 
COMPS,ioos:station:USF.COMPS:C10:1,2015-06-03T07:05:00Z,27.1690,-82.9260,-1.0,28.293,2 
COMPS,ioos:station:USF.COMPS:C10:1,2015-06-03T07:35:00Z,27.1690,-82.9260,-1.0,28.294,2 
COMPS,ioos:station:USF.COMPS:C10:1,2015-06-03T08:05:00Z,27.1690,-82.9260,-1.0,28.281,2 
COMPS,ioos:station:USF.COMPS:C10:1,2015-06-03T08:35:00Z,27.1690,-82.9260,-1.0,28.272,2 
COMPS,ioos:station:USF.COMPS:C10:1,2015-06-03T09:05:00Z,27.1690,-82.9260,-1.0,28.259,2 
COMPS,ioos:station:USF.COMPS:C10:1,2015-06-03T09:35:00Z,27.1690,-82.9260,-1.0,28.256,2 
COMPS,ioos:station:USF.COMPS:C10:1,2015-06-03T10:05:00Z,27.1690,-82.9260,-1.0,28.248,2 
COMPS,ioos:station:USF.COMPS:C10:1,2015-06-03T10:35:00Z,27.1690,-82.9260,-1.0,28.235,2 
COMPS,ioos:station:USF.COMPS:C10:1,2015-06-03T12:05:00Z,27.1690,-82.9260,-1.0,28.193,2 
COMPS,ioos:station:USF.COMPS:C10:1,2015-06-03T12:35:00Z,27.1690,-82.9260,-1.0,28.205,2 
COMPS,ioos:station:USF.COMPS:C10:1,2015-06-03T13:05:00Z,27.1690,-82.9260,-1.0,28.207,2 
COMPS,ioos:station:USF.COMPS:C10:1,2015-06-03T13:35:00Z,27.1690,-82.9260,-1.0,28.201,2 
COMPS,ioos:station:USF.COMPS:C10:1,2015-06-03T14:05:00Z,27.1690,-82.9260,-1.0,28.202,2 
COMPS,ioos:station:USF.COMPS:C10:1,2015-06-03T14:35:00Z,27.1690,-82.9260,-1.0,28.198,2 
COMPS,ioos:station:USF.COMPS:C10:1,2015-06-03T16:05:00Z,27.1690,-82.9260,-1.0,28.31,2 
COMPS,ioos:station:USF.COMPS:C10:1,2015-06-03T16:35:00Z,27.1690,-82.9260,-1.0,28.391,2 
COMPS,ioos:station:USF.COMPS:C10:1,2015-06-03T17:05:00Z,27.1690,-82.9260,-1.0,28.461,2 
COMPS,ioos:station:USF.COMPS:C10:1,2015-06-03T18:05:00Z,27.1690,-82.9260,-1.0,28.695,2 
COMPS,ioos:station:USF.COMPS:C10:1,2015-06-03T18:35:00Z,27.1690,-82.9260,-1.0,28.82,2 
COMPS,ioos:station:USF.COMPS:C10:1,2015-06-03T19:05:00Z,27.1690,-82.9260,-1.0,29.002,2 
COMPS,ioos:station:USF.COMPS:C10:1,2015-06-03T19:35:00Z,27.1690,-82.9260,-1.0,29.213,2 
COMPS,ioos:station:USF.COMPS:C10:1,2015-06-03T20:05:00Z,27.1690,-82.9260,-1.0,29.192,2 
COMPS,ioos:station:USF.COMPS:C10:1,2015-06-03T21:05:00Z,27.1690,-82.9260,-1.0,29.347,2 
COMPS,ioos:station:USF.COMPS:C10:1,2015-06-03T21:35:00Z,27.1690,-82.9260,-1.0,29.445,2 
COMPS,ioos:station:USF.COMPS:C10:1,2015-06-03T22:05:00Z,27.1690,-82.9260,-1.0,29.536,2 
COMPS,ioos:station:USF.COMPS:C10:1,2015-06-03T23:05:00Z,27.1690,-82.9260,-1.0,29.482,2 
COMPS,ioos:station:USF.COMPS:C10:1,2015-06-03T23:35:00Z,27.1690,-82.9260,-1.0,29.481,2 
COMPS,ioos:station:USF.COMPS:C10:1,2015-06-04T04:35:00Z,27.1690,-82.9260,-1.0,28.614,2 
COMPS,ioos:station:USF.COMPS:C10:1,2015-06-04T05:05:00Z,27.1690,-82.9260,-1.0,28.57,2 
COMPS,ioos:station:USF.COMPS:C10:1,2015-06-04T05:35:00Z,27.1690,-82.9260,-1.0,28.536,2 
COMPS,ioos:station:USF.COMPS:C10:1,2015-06-04T06:05:00Z,27.1690,-82.9260,-1.0,28.511,2 
COMPS,ioos:station:USF.COMPS:C10:1,2015-06-04T07:05:00Z,27.1690,-82.9260,-1.0,28.461,2 
COMPS,ioos:station:USF.COMPS:C10:1,2015-06-04T07:35:00Z,27.1690,-82.9260,-1.0,28.439,2 
COMPS,ioos:station:USF.COMPS:C10:1,2015-06-04T08:05:00Z,27.1690,-82.9260,-1.0,28.414,2 
COMPS,ioos:station:USF.COMPS:C10:1,2015-06-04T08:35:00Z,27.1690,-82.9260,-1.0,28.397,2 
COMPS,ioos:station:USF.COMPS:C10:1,2015-06-04T09:35:00Z,27.1690,-82.9260,-1.0,28.359,2 
COMPS,ioos:station:USF.COMPS:C10:1,2015-06-04T10:05:00Z,27.1690,-82.9260,-1.0,28.341,2 
COMPS,ioos:station:USF.COMPS:C10:1,2015-06-04T10:35:00Z,27.1690,-82.9260,-1.0,28.357,2 
COMPS,ioos:station:USF.COMPS:C10:1,2015-06-04T11:05:00Z,27.1690,-82.9260,-1.0,28.341,2 
COMPS,ioos:station:USF.COMPS:C10:1,2015-06-04T11:35:00Z,27.1690,-82.9260,-1.0,28.309,2 
COMPS,ioos:station:USF.COMPS:C10:1,2015-06-04T12:05:00Z,27.1690,-82.9260,-1.0,28.262,2 
COMPS,ioos:station:USF.COMPS:C10:1,2015-06-04T12:35:00Z,27.1690,-82.9260,-1.0,28.245,2 
COMPS,ioos:station:USF.COMPS:C10:1,2015-06-04T13:35:00Z,27.1690,-82.9260,-1.0,28.234,2 
COMPS,ioos:station:USF.COMPS:C10:1,2015-06-04T14:05:00Z,27.1690,-82.9260,-1.0,28.259,2 
COMPS,ioos:station:USF.COMPS:C10:1,2015-06-04T15:35:00Z,27.1690,-82.9260,-1.0,28.434,2 
COMPS,ioos:station:USF.COMPS:C10:1,2015-06-04T16:05:00Z,27.1690,-82.9260,-1.0,28.521,2 
COMPS,ioos:station:USF.COMPS:C10:1,2015-06-04T16:35:00Z,27.1690,-82.9260,-1.0,28.683,2 
COMPS,ioos:station:USF.COMPS:C10:1,2015-06-04T22:05:00Z,27.1690,-82.9260,-1.0,28.974,2 
COMPS,ioos:station:USF.COMPS:C10:1,2015-06-05T04:05:00Z,27.1690,-82.9260,-1.0,28.402,2 
COMPS,ioos:station:USF.COMPS:C10:1,2015-06-05T04:35:00Z,27.1690,-82.9260,-1.0,28.376,2 
COMPS,ioos:station:USF.COMPS:C10:1,2015-06-05T05:05:00Z,27.1690,-82.9260,-1.0,28.354,2 
COMPS,ioos:station:USF.COMPS:C10:1,2015-06-05T05:35:00Z,27.1690,-82.9260,-1.0,28.337,2 
COMPS,ioos:station:USF.COMPS:C10:1,2015-06-05T06:05:00Z,27.1690,-82.9260,-1.0,28.324,2 
COMPS,ioos:station:USF.COMPS:C10:1,2015-06-05T06:35:00Z,27.1690,-82.9260,-1.0,28.311,2 
COMPS,ioos:station:USF.COMPS:C10:1,2015-06-05T08:05:00Z,27.1690,-82.9260,-1.0,28.301,2 
COMPS,ioos:station:USF.COMPS:C10:1,2015-06-05T08:35:00Z,27.1690,-82.9260,-1.0,28.283,2 
COMPS,ioos:station:USF.COMPS:C10:1,2015-06-05T09:05:00Z,27.1690,-82.9260,-1.0,28.282,2 
COMPS,ioos:station:USF.COMPS:C10:1,2015-06-05T09:35:00Z,27.1690,-82.9260,-1.0,28.278,2 
COMPS,ioos:station:USF.COMPS:C10:1,2015-06-05T10:05:00Z,27.1690,-82.9260,-1.0,28.295,2 
COMPS,ioos:station:USF.COMPS:C10:1,2015-06-05T10:35:00Z,27.1690,-82.9260,-1.0,28.318,2 
COMPS,ioos:station:USF.COMPS:C10:1,2015-06-05T11:05:00Z,27.1690,-82.9260,-1.0,28.331,2 
COMPS,ioos:station:USF.COMPS:C10:1,2015-06-05T11:35:00Z,27.1690,-82.9260,-1.0,28.325,2 
COMPS,ioos:station:USF.COMPS:C10:1,2015-06-05T12:05:00Z,27.1690,-82.9260,-1.0,28.327,2 
COMPS,ioos:station:USF.COMPS:C10:1,2015-06-05T12:35:00Z,27.1690,-82.9260,-1.0,28.357,2 
COMPS,ioos:station:USF.COMPS:C10:1,2015-06-05T13:05:00Z,27.1690,-82.9260,-1.0,28.372,2 
COMPS,ioos:station:USF.COMPS:C10:1,2015-06-05T13:35:00Z,27.1690,-82.9260,-1.0,28.357,2 
COMPS,ioos:station:USF.COMPS:C10:1,2015-06-05T14:05:00Z,27.1690,-82.9260,-1.0,28.345,2 
COMPS,ioos:station:USF.COMPS:C10:1,2015-06-05T15:05:00Z,27.1690,-82.9260,-1.0,28.349,2 
COMPS,ioos:station:USF.COMPS:C10:1,2015-06-05T16:05:00Z,27.1690,-82.9260,-1.0,28.403,2 
COMPS,ioos:station:USF.COMPS:C10:1,2015-06-05T16:35:00Z,27.1690,-82.9260,-1.0,28.559,2 
COMPS,ioos:station:USF.COMPS:C10:1,2015-06-05T17:05:00Z,27.1690,-82.9260,-1.0,28.781,2 
COMPS,ioos:station:USF.COMPS:C10:1,2015-06-05T18:05:00Z,27.1690,-82.9260,-1.0,29.323,2 
COMPS,ioos:station:USF.COMPS:C10:1,2015-06-05T18:35:00Z,27.1690,-82.9260,-1.0,29.374,2 
COMPS,ioos:station:USF.COMPS:C10:1,2015-06-05T19:05:00Z,27.1690,-82.9260,-1.0,29.517,2 
COMPS,ioos:station:USF.COMPS:C10:1,2015-06-05T19:35:00Z,27.1690,-82.9260,-1.0,29.659,2 
COMPS,ioos:station:USF.COMPS:C10:1,2015-06-05T20:05:00Z,27.1690,-82.9260,-1.0,29.566,2 
COMPS,ioos:station:USF.COMPS:C10:1,2015-06-05T20:35:00Z,27.1690,-82.9260,-1.0,29.412,2 
COMPS,ioos:station:USF.COMPS:C10:1,2015-06-05T23:35:00Z,27.1690,-82.9260,-1.0,28.865,2 
COMPS,ioos:station:USF.COMPS:C10:1,2015-06-06T00:05:00Z,27.1690,-82.9260,-1.0,28.775,2 
COMPS,ioos:station:USF.COMPS:C10:1,2015-06-06T00:35:00Z,27.1690,-82.9260,-1.0,28.684,2 
COMPS,ioos:station:USF.COMPS:C10:1,2015-06-06T01:05:00Z,27.1690,-82.9260,-1.0,28.612,2 
COMPS,ioos:station:USF.COMPS:C10:1,2015-06-06T01:35:00Z,27.1690,-82.9260,-1.0,28.537,2 
COMPS,ioos:station:USF.COMPS:C10:1,2015-06-06T02:05:00Z,27.1690,-82.9260,-1.0,28.526,2 
COMPS,ioos:station:USF.COMPS:C10:1,2015-06-06T02:35:00Z,27.1690,-82.9260,-1.0,28.543,2 
COMPS,ioos:station:USF.COMPS:C10:1,2015-06-06T04:05:00Z,27.1690,-82.9260,-1.0,28.563,2 
COMPS,ioos:station:USF.COMPS:C10:1,2015-06-06T06:05:00Z,27.1690,-82.9260,-1.0,28.594,2 
COMPS,ioos:station:USF.COMPS:C10:1,2015-06-06T06:35:00Z,27.1690,-82.9260,-1.0,28.575,2 
COMPS,ioos:station:USF.COMPS:C10:1,2015-06-06T07:05:00Z,27.1690,-82.9260,-1.0,28.564,2 
COMPS,ioos:station:USF.COMPS:C10:1,2015-06-06T07:35:00Z,27.1690,-82.9260,-1.0,28.546,2 
COMPS,ioos:station:USF.COMPS:C10:1,2015-06-06T08:05:00Z,27.1690,-82.9260,-1.0,28.529,2 
COMPS,ioos:station:USF.COMPS:C10:1,2015-06-06T08:35:00Z,27.1690,-82.9260,-1.0,28.503,2 
COMPS,ioos:station:USF.COMPS:C10:1,2015-06-06T09:05:00Z,27.1690,-82.9260,-1.0,28.458,2 
COMPS,ioos:station:USF.COMPS:C10:1,2015-06-06T09:35:00Z,27.1690,-82.9260,-1.0,28.461,2 
COMPS,ioos:station:USF.COMPS:C10:1,2015-06-06T11:05:00Z,27.1690,-82.9260,-1.0,28.388,2 
COMPS,ioos:station:USF.COMPS:C10:1,2015-06-06T11:35:00Z,27.1690,-82.9260,-1.0,28.385,2 
COMPS,ioos:station:USF.COMPS:C10:1,2015-06-06T12:05:00Z,27.1690,-82.9260,-1.0,28.367,2 
 
DISCLAIMER: The Gulf of Mexico Coastal and Ocean Observing (GCOOS) Data Portal aggregates data from the regional data providers for the convenience of all data users. Data published on this website should not be used for navigation or certain other uses as we cannot guarantee data accuracy or availability. The data and delivery services are provided 'as is' without warranty of any kind. Data Source: Gulf of Mexico Coastal Ocean Observing System Data Portal (http://data.gcoos.org/) 
